Date String (YYYY-MM-DD hh:mm:ss) UTC,Instrument flags,Ambient pressure (hPa),Sample flow (lpm),Bypass flow (lpm),Sample temperature (°C),Ambient temperature (°C),ASC tube jacket temperature (°C),LED temperature (°C),Box temperature (°C),Sample RH (%),Span deviation,Mass concentration (μg/m³),Mass concentration (μg/m³),Mass concentration (μg/m³)
DateTimeUTC,F1_M11,P_M11,Q1_M11,Q2_M11,T1_M11,T2_M11,T3_M11,T4_M11,T5_M11,U1_M11,ZSPAN_M11,X0_M11,X2_M11,X1_M11
2022-04-11 20:00:00,,0810.9,5.00,0.00,25.5,24.8,00.0,34.3,27.4,08.6,0000.0,0024.44,0006.70,0003.33
2022-04-11 20:01:00,,0810.9,5.01,0.00,25.5,24.9,00.0,34.3,27.4,08.1,0000.0,0023.97,0006.70,0003.33
2022-04-11 20:02:00,,0810.9,5.00,0.00,25.5,24.9,00.0,34.3,27.4,08.1,0000.0,0023.03,0006.71,0003.33
2022-04-11 20:03:00,,0810.9,5.00,0.00,25.6,24.9,00.0,34.3,27.4,08.3,0000.0,0023.06,0006.61,0003.32
2022-04-11 20:04:00,,0810.8,4.99,0.00,25.6,25.0,00.0,34.4,27.5,08.1,0000.0,0023.47,0006.61,0003.31
2022-04-11 20:05:00,,0810.9,5.00,0.00,25.6,25.0,00.0,34.4,27.5,08.3,0000.0,0023.63,0006.66,0003.33
2022-04-11 20:06:00,,0810.8,5.01,0.00,25.6,25.0,00.0,34.4,27.6,08.6,0000.0,0024.81,0006.70,0003.34
2022-04-11 20:07:00,,0810.9,4.99,0.00,25.7,25.1,00.0,34.4,27.6,08.5,0000.0,0025.33,0006.78,0003.34
2022-04-11 20:08:00,,0810.8,5.00,0.00,25.7,25.1,00.0,34.4,27.6,08.2,0000.0,0025.71,0006.82,0003.35
2022-04-11 20:09:00,,0810.8,5.01,0.00,25.7,25.1,00.0,34.5,27.6,08.0,0000.0,0026.80,0006.82,0003.34
2022-04-11 20:10:00,,0810.8,5.00,0.00,25.7,25.1,00.0,34.5,27.6,08.5,0000.0,0026.42,0006.77,0003.32
2022-04-11 20:11:00,,0810.7,5.00,0.00,25.8,25.1,00.0,34.5,27.7,08.0,0000.0,0026.76,0006.79,0003.31
2022-04-11 20:12:00,,0810.6,5.00,0.00,25.8,25.1,00.0,34.5,27.7,07.5,0000.0,0026.27,0006.76,0003.31
2022-04-11 20:13:00,,0810.6,4.99,0.00,25.8,25.1,00.0,34.5,27.7,07.6,0000.0,0025.99,0006.69,0003.30
2022-04-11 20:14:00,,0810.5,5.00,0.00,25.8,25.1,00.0,34.6,27.7,07.8,0000.0,0026.45,0006.79,0003.30
2022-04-11 20:15:00,,0810.5,5.00,0.00,25.8,25.1,00.0,34.6,27.7,07.6,0000.0,0027.46,0006.79,0003.31
2022-04-11 20:16:00,,0810.5,5.00,0.00,25.8,25.1,00.0,34.6,27.7,07.8,0000.0,0028.55,0006.78,0003.28
2022-04-11 20:17:00,,0810.5,5.01,0.00,25.8,25.1,00.0,34.6,27.6,07.6,0000.0,0028.15,0006.69,0003.27
2022-04-11 20:18:00,,0810.4,4.99,0.00,25.8,25.1,00.0,34.6,27.6,07.5,0000.0,0028.80,0006.62,0003.25
2022-04-11 20:19:00,,0810.3,5.00,0.00,25.8,25.1,00.0,34.6,27.6,07.9,0000.0,0029.18,0006.68,0003.24
2022-04-11 20:20:00,,0810.2,5.01,0.00,25.8,25.1,00.0,34.6,27.7,08.0,0000.0,0030.46,0006.70,0003.23
2022-04-11 20:21:00,,0810.3,5.00,0.00,25.8,25.1,00.0,34.6,27.7,07.4,0000.0,0031.09,0006.74,0003.24
2022-04-11 20:22:00,,0810.3,4.99,0.00,25.8,25.1,00.0,34.7,27.7,07.4,0000.0,0030.57,0006.76,0003.25
2022-04-11 20:23:00,,0810.2,5.00,0.00,25.8,25.2,00.0,34.7,27.7,07.5,0000.0,0029.63,0006.72,0003.23
2022-04-11 20:24:00,,0810.2,5.01,0.00,25.9,25.2,00.0,34.7,27.8,07.4,0000.0,0029.58,0006.72,0003.22
2022-04-11 20:25:00,,0810.2,5.00,0.00,25.9,25.2,00.0,34.7,27.8,07.5,0000.0,0029.18,0006.57,0003.21
2022-04-11 20:26:00,,0810.2,5.00,0.00,25.9,25.2,00.0,34.7,27.8,07.8,0000.0,0027.65,0006.52,0003.20
2022-04-11 20:27:00,,0810.2,5.01,0.00,25.9,25.3,00.0,34.7,27.8,07.5,0000.0,0025.88,0006.49,0003.20
2022-04-11 20:28:00,,0810.2,5.00,0.00,26.0,25.3,00.0,34.7,27.9,07.6,0000.0,0024.47,0006.50,0003.19
2022-04-11 20:29:00,,0810.2,4.99,0.00,26.0,25.3,00.0,34.8,27.9,07.5,0000.0,0022.93,0006.47,0003.18
2022-04-11 20:30:00,,0810.2,5.00,0.00,26.0,25.4,00.0,34.8,27.9,07.4,0000.0,0023.55,0006.50,0003.17
2022-04-11 20:31:00,,0810.2,5.00,0.00,26.0,25.4,00.0,34.8,27.9,07.4,0000.0,0022.21,0006.54,0003.16
2022-04-11 20:32:00,,0810.1,5.00,0.00,26.0,25.4,00.0,34.8,27.9,07.5,0000.0,0021.64,0006.57,0003.15
2022-04-11 20:33:00,,0810.0,5.01,0.00,26.1,25.4,00.0,34.8,28.0,07.8,0000.0,0022.24,0006.58,0003.13
2022-04-11 20:34:00,,0810.0,5.00,0.00,26.1,25.4,00.0,34.8,28.0,07.7,0000.0,0024.03,0006.59,0003.13
2022-04-11 20:35:00,,0810.0,4.99,0.00,26.1,25.4,00.0,34.9,28.0,07.5,0000.0,0024.10,0006.49,0003.11
2022-04-11 20:36:00,,0810.0,5.01,0.00,26.1,25.4,00.0,34.9,28.0,07.3,0000.0,0023.50,0006.48,0003.08
2022-04-11 20:37:00,,0810.0,4.99,0.00,26.1,25.5,00.0,34.9,28.0,07.3,0000.0,0024.37,0006.57,0003.08
2022-04-11 20:38:00,,0810.0,4.99,0.00,26.1,25.5,00.0,34.9,28.0,07.4,0000.0,0025.87,0006.58,0003.06
2022-04-11 20:39:00,,0810.0,5.02,0.00,26.2,25.5,00.0,34.9,28.0,07.7,0000.0,0027.24,0006.66,0003.07
2022-04-11 20:40:00,,0810.0,4.99,0.00,26.2,25.5,00.0,34.9,28.1,07.8,0000.0,0027.34,0006.63,0003.07
2022-04-11 20:41:00,,0810.0,5.00,0.00,26.2,25.5,00.0,35.0,28.0,07.6,0000.0,0027.01,0006.49,0003.05
2022-04-11 20:42:00,,0810.0,5.00,0.00,26.2,25.5,00.0,35.0,28.0,07.7,0000.0,0026.29,0006.40,0003.04
2022-04-11 20:43:00,,0810.0,5.01,0.00,26.2,25.5,00.0,35.0,28.1,07.9,0000.0,0027.01,0006.37,0003.03
2022-04-11 20:44:00,,0809.9,4.99,0.00,26.2,25.5,00.0,35.0,28.1,07.5,0000.0,0027.84,0006.42,0003.03
2022-04-11 20:45:00,,0810.0,5.00,0.00,26.2,25.5,00.0,35.0,28.1,07.4,0000.0,0026.82,0006.42,0003.02
2022-04-11 20:46:00,,0810.0,5.01,0.00,26.2,25.5,00.0,35.0,28.1,07.6,0000.0,0026.43,0006.52,0003.02
2022-04-11 20:47:00,,0809.9,4.99,0.00,26.2,25.6,00.0,35.0,28.2,07.3,0000.0,0026.84,0006.64,0003.03
2022-04-11 20:48:00,,0810.0,5.00,0.00,26.3,25.6,00.0,35.0,28.2,07.6,0000.0,0026.33,0006.67,0003.06
2022-04-11 20:49:00,,0809.9,5.01,0.00,26.3,25.6,00.0,35.1,28.2,07.5,0000.0,0025.60,0006.69,0003.07
2022-04-11 20:50:00,,0809.9,4.99,0.00,26.3,25.7,00.0,35.1,28.2,07.5,0000.0,0024.34,0006.68,0003.07
2022-04-11 20:51:00,,0809.8,5.00,0.00,26.3,25.7,00.0,35.1,28.2,07.7,0000.0,0024.40,0006.71,0003.06
2022-04-11 20:52:00,,0809.7,5.02,0.00,26.4,25.7,00.0,35.1,28.3,08.0,0000.0,0023.87,0006.76,0003.07
2022-04-11 20:53:00,,0809.7,4.99,0.00,26.4,25.7,00.0,35.1,28.3,07.8,0000.0,0023.77,0006.73,0003.08
2022-04-11 20:54:00,,0809.7,5.00,0.00,26.4,25.8,00.0,35.1,28.3,08.1,0000.0,0023.44,0006.70,0003.08
2022-04-11 20:55:00,,0809.7,5.00,0.00,26.4,25.8,00.0,35.2,28.3,07.8,0000.0,0023.01,0006.68,0003.08
2022-04-11 20:56:00,,0809.7,5.01,0.00,26.4,25.8,00.0,35.2,28.4,07.8,0000.0,0023.30,0006.66,0003.09
2022-04-11 20:57:00,,0809.7,5.00,0.00,26.5,25.8,00.0,35.2,28.4,07.8,0000.0,0023.54,0006.68,0003.09
2022-04-11 20:58:00,,0809.7,4.99,0.00,26.5,25.8,00.0,35.2,28.4,07.9,0000.0,0023.95,0006.66,0003.10
2022-04-11 20:59:00,,0809.7,5.01,0.00,26.5,25.9,00.0,35.2,28.4,08.3,0000.0,0024.59,0006.68,0003.10
